Temperature
20 21 21 21 20 20 19 19 19 19 18 18 18 19 19 19 19 19 19 19 19 19 19 18 18 18 18 17 17 17 17 16 16 16 17 17 17 17 17 17 17 17 17
19 19 20 20 20 19 19 19 19 18 18 18 18 18 18 19 19 19 19 19 19 19 19 18 18 18 18 17 17 17 17 16 16 16 15 16 16 17 17 17 17 17 17
17 18 18 18 19 19 18 18 18 18 18 18 18 18 18 18 18 18 19 19 18 18 18 18 18 18 18 17 17 17 17 16 16 15 15 14 14 15 16 16 17 17 17
16 16 17 17 18 18 18 18 17 17 18 18 18 18 18 18 18 18 18 18 18 18 18 18 18 18 18 17 17 17 17 16 16 16 15 14 14 14 14 15 16 16 16
15 16 16 16 16 17 17 16 16 17 17 17 17 17 18 18 18 18 18 17 17 17 17 17 17 17 17 17 17 17 17 16 16 16 15 15 14 14 13 14 15 16 16
15 15 16 16 16 16 16 16 16 16 16 16 16 17 17 17 17 17 17 17 17 17 17 16 17 17 17 17 17 17 17 16 16 16 15 15 14 14 13 13 14 15 16
16 16 16 16 16 16 15 15 15 15 15 15 15 15 15 16 16 16 16 16 16 16 16 16 15 16 16 16 16 16 16 16 16 16 15 15 14 14 14 13 13 14 15
16 16 16 15 15 15 15 15 15 15 15 15 15 15 14 14 14 14 14 14 14 15 15 15 15 15 15 15 15 15 16 16 16 15 15 15 15 14 14 14 13 13 14
16 16 15 15 15 15 15 15 14 14 14 14 13 13 13 13 13 13 13 13 13 13 13 14 14 14 14 14 14 15 15 15 15 15 15 15 15 14 14 14 13 13 13
16 16 15 15 15 15 14 14 14 14 13 13 13 13 12 12 12 12 12 12 12 12 12 12 13 13 13 13 13 14 14 14 14 15 15 15 15 14 14 14 14 13 13
16 16 16 15 15 15 14 14 14 13 13 13 12 12 12 11 11 11 11 11 11 11 11 11 12 12 12 12 12 13 13 13 14 14 14 14 14 14 14 14 14 13 13
16 16 16 15 15 14 14 14 13 13 13 12 12 12 11 11 11 11 11 10 10 10 10 10 11 11 11 11 11 12 12 12 13 13 13 14 14 14 14 14 14 14 13
16 16 15 15 14 14 14 13 13 13 12 12 12 11 11 11 11 10 10 10 10 10 10 10 10 10 10 10 11 11 11 12 12 12 13 13 13 14 14 14 14 14 14
15 15 14 14 14 14 13 13 13 12 12 12 11 11 11 11 11 10 10 10 10 10 10 10 9 9 9 10 10 10 10 11 11 12 12 12 13 13 13 13 13 13 13
14 14 14 14 13 13 13 13 12 12 12 12 11 11 11 11 10 10 10 10 10 10 9 9 9 9 9 9 9 9 10 10 10 11 11 12 12 13 13 13 13 13 13
14 14 13 13 13 13 12 12 12 12 11 11 11 11 11 10 10 10 10 10 10 9 9 9 9 9 9 9 9 9 9 10 10 10 11 11 12 12 12 13 13 13 13
14 13 13 13 12 12 12 12 12 11 11 11 11 10 10 10 10 10 10 9 9 9 9 9 9 9 9 9 9 9 9 9 9 10 10 11 11 12 12 12 12 13 13
13 13 13 12 12 12 11 11 11 11 11 10 10 10 10 10 10 9 9 9 9 9 9 9 9 8 8 9 9 9 9 9 9 9 10 10 11 11 11 12 12 12 12
13 12 12 12 11 11 11 10 10 10 10 10 9 9 9 9 9 9 9 9 9 9 9 8 8 8 8 8 8 8 8 8 9 9 9 10 10 11 11 11 11 12 12
12 11 11 11 10 10 10 9 9 9 9 9 8 8 8 8 8 8 8 8 8 8 8 8 8 8 8 8 8 8 8 8 9 9 9 9 10 10 10 11 11 11 11
11 10 10 9 9 9 8 8 8 8 7 7 7 7 7 7 7 7 7 8 8 8 8 8 8 8 8 8 8 8 8 8 8 8 9 9 9 10 10 10 11 11 11
10 9 9 8 8 7 7 7 7 6 6 6 6 6 6 6 6 6 6 7 7 7 7 7 8 8 8 8 8 8 8 8 8 8 8 9 9 9 10 10 10 10 11
9 8 7 7 7 6 6 6 6 5 5 5 5 5 5 6 6 6 6 6 6 6 6 7 7 7 8 8 8 8 8 8 8 8 8 8 8 9 9 9 10 10 10
8 7 7 6 6 6 5 5 5 5 5 5 5 5 5 5 5 5 5 5 6 6 6 6 7 7 7 7 8 8 8 8 8 7 7 8 8 8 9 9 9 9 10
7 6 6 6 5 5 5 5 5 4 4 4 4 4 5 5 5 5 5 5 5 6 6 6 6 7 7 7 7 7 8 8 7 7 7 7 7 7 8 8 9 9 9
6 6 5 5 5 5 5 5 4 4 4 4 4 4 4 4 4 5 5 5 5 5 5 6 6 6 7 7 7 7 7 7 7 7 7 7 7 7 8 8 9 9 9
Wind_Speed
11 13 14 14 12 11 8 6 6 5 4 1 1 1 1 1 2 3 4 6 6 6 4 4 3 3 2 1 0 0 1 2 2 2 4 5 5 5 5 5 5 6 7
12 12 11 9 8 8 6 4 2 4 4 2 1 1 1 1 2 3 4 6 6 6 5 5 4 4 2 1 1 1 0 1 1 1 2 4 5 4 3 3 3 4 4
10 9 8 6 6 5 4 2 2 1 4 3 1 1 2 1 1 1 2 3 5 6 6 7 6 5 3 2 1 2 2 1 1 0 1 1 2 4 4 3 3 3 4
11 10 10 10 9 7 6 5 3 2 2 1 1 0 1 1 2 2 2 2 4 4 5 6 7 6 4 4 3 3 2 2 2 2 1 3 3 2 4 4 3 4 5
11 12 12 11 11 10 9 8 8 8 7 6 4 2 2 1 1 0 1 1 2 3 4 5 6 6 5 5 4 3 3 3 3 3 2 2 3 4 4 5 4 4 4
9 10 10 10 11 10 9 9 9 9 9 9 8 6 5 4 3 3 1 1 2 2 2 3 4 5 4 5 5 5 5 4 4 4 4 3 3 3 3 4 5 5 5
6 7 8 9 8 8 8 7 8 7 7 8 8 7 6 5 4 3 3 3 2 2 3 2 3 3 4 5 5 5 5 5 5 5 5 5 5 5 4 5 5 4 4
4 5 5 5 5 5 5 5 5 5 5 6 6 6 6 4 4 4 3 3 3 3 4 3 3 4 5 5 5 5 6 5 6 7 6 5 5 5 5 5 4 4 3
4 4 3 3 3 3 2 3 3 2 3 3 3 3 4 4 4 5 4 4 4 4 5 5 5 5 5 6 5 5 6 6 6 7 7 6 5 5 6 6 5 4 4
3 4 4 4 4 4 3 2 2 1 1 1 2 2 2 3 3 4 5 5 5 5 6 6 6 6 7 6 6 6 7 7 7 6 7 6 5 5 5 5 5 6 5
5 5 5 5 5 5 4 4 4 3 4 4 4 4 5 5 4 4 5 5 5 6 6 6 6 7 7 7 6 7 7 7 7 7 7 8 6 5 5 5 5 5 5
5 6 6 6 5 6 6 6 7 7 8 8 7 7 7 7 7 7 8 7 7 7 7 6 7 7 7 7 7 8 8 7 8 8 7 8 6 6 5 5 5 5 6
6 5 5 5 6 7 7 8 8 9 9 9 8 9 9 8 9 9 9 8 8 8 8 7 7 8 7 7 7 8 8 8 8 8 8 8 7 7 5 5 6 5 5
5 5 5 6 7 8 9 9 10 10 10 9 9 10 11 11 11 10 10 10 9 9 9 9 8 8 8 8 8 7 8 7 7 7 8 8 8 8 7 6 6 5 5
5 6 6 7 8 9 9 9 10 10 10 10 10 12 12 11 11 11 11 11 10 11 10 9 9 8 7 7 7 6 8 7 7 7 7 8 9 11 8 6 6 5 5
8 9 9 9 9 9 10 10 10 11 10 10 11 11 11 11 11 11 11 10 10 10 9 9 9 9 8 10 11 8 7 7 7 7 7 7 8 9 10 10 9 8 8
10 10 10 10 10 10 11 11 11 10 10 10 11 11 11 11 11 11 10 10 10 10 9 9 9 9 11 14 13 13 8 7 7 7 7 7 7 8 6 6 6 6 9
11 11 10 11 10 10 10 10 10 9 10 10 10 10 10 10 10 10 10 10 8 8 8 9 9 9 11 14 14 13 9 7 8 8 8 7 6 7 7 5 4 3 3
12 11 11 12 11 11 11 10 10 10 10 10 10 10 9 10 9 10 10 9 7 8 8 7 9 9 11 14 14 12 6 7 8 7 7 7 7 9 10 7 6 4 2
11 11 11 11 11 11 10 10 11 11 11 11 10 10 9 9 10 10 10 8 8 9 8 8 9 9 10 12 14 12 5 6 6 5 6 8 8 9 10 9 9 8 6
11 11 11 10 10 11 10 11 11 11 11 10 10 9 9 9 10 9 8 8 8 8 8 8 8 9 10 12 14 13 7 6 5 4 4 5 9 9 9 8 8 10 10
11 11 10 10 11 11 11 12 13 13 12 11 11 11 10 11 11 8 8 7 7 7 8 7 7 7 8 10 11 13 11 9 6 4 3 4 8 10 10 7 9 13 11
11 11 12 13 13 12 12 14 14 13 13 13 12 12 12 10 10 9 9 8 7 7 7 6 6 6 6 7 11 11 10 10 6 4 4 4 7 8 8 10 12 11 9
12 11 13 15 15 14 14 14 15 14 13 13 13 11 11 11 10 8 8 7 7 7 7 7 6 6 5 5 4 4 5 6 5 3 3 5 6 4 6 9 8 6 7
11 12 14 16 17 16 16 16 15 14 14 14 12 11 10 10 9 8 8 8 8 8 8 7 6 6 5 7 9 8 6 6 5 4 2 3 3 4 5 6 6 6 7
14 15 16 16 17 18 18 16 15 14 14 12 11 9 8 8 7 7 8 10 11 12 13 12 9 7 8 9 11 12 11 11 10 6 3 4 5 5 6 7 6 6 8
Wind_Direction
50 53 60 65 71 69 66 46 41 31 21 37 146 162 190 187 156 149 154 145 145 144 137 135 126 121 122 136 336 335 334 308 325 343 318 300 278 266 259 256 254 245 239
58 52 55 65 76 84 95 99 79 74 57 329 286 225 221 211 187 165 167 159 158 164 159 156 154 150 136 90 62 81 43 307 11 37 333 333 335 333 303 285 266 265 255
69 65 58 50 59 73 87 86 76 144 164 187 267 31 51 32 52 153 186 190 176 178 173 172 166 169 158 168 200 158 140 246 308 183 190 279 294 312 311 308 297 296 279
51 59 58 46 45 47 59 63 56 36 38 79 90 134 155 190 217 204 197 203 201 198 190 181 177 176 171 179 194 177 180 177 258 296 218 211 216 253 303 311 310 314 297
53 58 57 50 48 51 57 53 42 30 18 23 40 54 50 28 342 60 119 233 253 239 209 188 180 182 182 185 192 199 207 199 212 225 242 250 242 222 231 282 306 315 298
64 63 61 60 57 56 56 53 47 33 24 27 31 41 46 35 33 24 14 320 299 294 269 203 186 187 191 197 205 213 220 223 226 229 224 224 235 234 230 257 283 293 290
77 72 65 63 62 60 58 57 54 39 26 29 28 27 27 26 23 8 356 351 336 318 313 274 221 214 215 214 212 217 227 227 233 235 233 229 231 229 228 249 266 271 283
97 96 91 88 84 78 70 65 61 45 27 27 22 21 21 21 11 2 350 343 325 303 314 308 269 250 242 235 223 222 230 231 234 240 237 237 239 229 224 227 242 274 278
139 136 130 127 126 115 105 98 84 53 25 21 10 9 7 7 357 348 342 332 325 321 331 324 312 292 271 255 241 235 237 235 235 239 241 241 244 237 232 225 216 222 256
166 173 177 175 171 169 166 147 132 158 275 317 322 328 324 321 320 326 324 319 317 323 325 325 318 308 297 280 261 251 246 240 240 237 240 244 246 246 238 231 222 214 220
201 209 207 200 192 185 183 191 201 213 230 236 236 248 258 264 272 278 281 285 290 300 307 307 308 305 299 296 282 265 257 248 248 245 242 245 243 245 244 236 227 220 212
227 226 223 218 210 213 219 224 227 231 236 235 234 238 247 255 262 266 269 271 276 280 281 286 292 294 297 293 287 282 274 255 250 248 245 247 246 245 244 238 235 228 214
283 274 268 257 247 244 244 244 243 243 245 242 242 246 249 250 252 256 260 262 263 268 271 270 273 278 283 286 284 280 273 262 252 247 242 242 237 245 245 241 241 233 224
319 317 297 279 267 260 256 254 254 250 249 244 241 244 247 246 246 249 251 252 252 256 262 260 257 261 268 275 280 286 277 267 262 254 243 238 231 234 238 242 239 229 214
323 309 288 272 266 266 264 258 256 255 251 246 242 243 244 243 244 245 248 249 248 251 250 252 253 255 261 266 270 276 286 276 273 266 252 242 236 229 225 230 228 214 205
294 292 287 279 273 267 263 260 257 254 248 244 244 244 242 241 240 242 243 243 244 246 245 244 247 251 260 267 271 270 274 272 266 266 264 254 242 233 226 225 221 208 199
291 289 283 272 269 266 264 263 260 257 252 249 248 246 243 242 241 242 240 236 237 236 236 240 241 245 251 257 263 265 260 259 260 258 253 258 244 222 215 214 216 216 206
294 289 282 277 273 270 272 271 269 265 261 259 257 254 250 247 245 241 239 237 233 230 230 233 238 243 251 253 256 258 253 252 253 250 242 242 243 222 203 189 182 186 189
285 283 282 282 283 283 282 283 280 275 271 267 263 260 255 254 252 247 242 238 231 230 228 227 231 236 248 252 253 249 244 247 252 251 243 234 233 222 199 179 170 157 146
290 291 292 293 294 292 292 290 287 285 280 276 273 267 260 255 252 249 244 240 233 234 234 235 231 232 240 248 249 239 225 239 249 255 245 235 223 205 193 183 170 162 155
298 299 300 299 295 295 296 291 289 283 280 279 277 274 268 264 258 250 244 240 238 237 235 237 239 236 238 246 245 234 213 221 231 244 251 237 207 189 186 183 176 165 150
306 305 302 297 295 296 296 292 288 285 283 280 277 273 268 269 274 255 247 240 234 234 237 238 247 247 244 243 242 230 218 208 209 225 234 240 204 182 172 167 155 147 140
307 305 304 305 303 299 295 293 292 291 290 285 280 277 274 266 261 253 248 245 237 234 236 231 237 249 250 244 235 222 209 204 202 209 219 216 196 181 167 154 148 146 142
310 311 311 309 306 302 298 293 293 291 287 284 281 276 274 270 262 254 245 241 236 231 229 227 231 238 242 233 211 193 185 188 189 185 192 179 178 180 162 156 151 149 146
311 311 311 310 309 308 304 299 296 292 285 280 277 274 269 265 259 252 245 240 235 226 219 222 217 213 226 225 198 181 176 173 169 152 149 151 163 171 162 155 146 140 137
316 317 315 314 313 310 307 303 299 295 290 284 278 271 265 261 254 253 259 248 239 239 231 228 219 217 218 206 188 180 167 162 157 147 160 169 172 171 168 158 148 146 146
Height
1491 1490 1490 1491 1492 1493 1495 1494 1497 1496 1497 1497 1501 1504 1506 1508 1507 1508 1511 1511 1511 1511 1510 1509 1508 1508 1507 1506 1504 1503 1503 1502 1500 1499 1498 1498 1497 1497 1497 1498 1498 1499 1500
1491 1491 1492 1493 1492 1493 1493 1493 1492 1495 1496 1497 1500 1503 1505 1506 1506 1506 1508 1508 1508 1508 1507 1507 1506 1505 1505 1503 1502 1501 1499 1499 1497 1496 1495 1494 1494 1493 1494 1494 1494 1495 1495
1494 1494 1493 1494 1494 1493 1493 1493 1495 1495 1496 1497 1500 1501 1503 1504 1504 1504 1505 1505 1505 1506 1505 1504 1504 1503 1502 1501 1500 1498 1497 1495 1495 1494 1494 1493 1491 1490 1490 1491 1491 1491 1491
1500 1497 1496 1496 1495 1495 1494 1494 1494 1496 1496 1497 1499 1500 1501 1502 1502 1501 1501 1502 1503 1503 1502 1502 1501 1500 1500 1499 1498 1496 1494 1493 1492 1492 1491 1491 1490 1490 1487 1487 1488 1488 1487
1504 1501 1499 1499 1498 1497 1497 1497 1497 1497 1496 1497 1497 1498 1499 1499 1499 1498 1498 1499 1499 1499 1498 1498 1498 1497 1497 1496 1495 1494 1492 1491 1489 1488 1487 1487 1487 1486 1485 1483 1482 1483 1483
1506 1504 1503 1502 1501 1500 1500 1500 1499 1497 1497 1497 1496 1496 1496 1496 1495 1495 1495 1495 1495 1495 1494 1494 1494 1494 1493 1492 1491 1490 1489 1488 1487 1485 1484 1483 1483 1482 1481 1480 1478 1478 1478
1505 1505 1504 1503 1503 1503 1502 1502 1501 1500 1499 1498 1496 1495 1493 1492 1491 1491 1491 1490 1490 1490 1489 1489 1489 1489 1489 1488 1487 1486 1485 1484 1483 1482 1480 1479 1478 1478 1477 1476 1475 1474 1473
1507 1506 1505 1505 1504 1504 1503 1502 1501 1500 1499 1497 1495 1494 1492 1490 1488 1487 1487 1486 1485 1484 1484 1484 1483 1483 1484 1483 1482 1481 1481 1480 1479 1478 1476 1475 1474 1473 1472 1472 1471 1470 1470
1507 1507 1506 1505 1505 1504 1503 1502 1500 1499 1497 1496 1494 1492 1490 1488 1486 1485 1483 1482 1480 1480 1479 1478 1477 1477 1477 1477 1476 1476 1475 1475 1474 1473 1472 1470 1469 1469 1468 1467 1467 1468 1466
1508 1506 1505 1504 1503 1502 1500 1499 1498 1496 1495 1493 1491 1489 1487 1485 1483 1481 1480 1478 1476 1474 1473 1472 1471 1471 1471 1470 1470 1469 1469 1469 1468 1467 1466 1465 1464 1463 1463 1462 1462 1462 1463
1507 1505 1503 1501 1500 1498 1497 1496 1494 1493 1491 1489 1487 1486 1484 1482 1479 1477 1475 1473 1471 1469 1467 1466 1465 1464 1464 1463 1463 1462 1462 1462 1462 1461 1461 1460 1459 1458 1457 1457 1457 1457 1457
1504 1502 1500 1498 1496 1494 1493 1491 1489 1488 1486 1484 1482 1480 1478 1476 1474 1472 1470 1468 1466 1464 1462 1461 1459 1458 1457 1457 1456 1456 1455 1455 1455 1455 1455 1454 1453 1452 1452 1451 1451 1451 1452
1501 1499 1496 1494 1492 1490 1488 1486 1484 1481 1479 1477 1475 1473 1471 1469 1468 1466 1464 1463 1461 1459 1457 1456 1454 1452 1451 1450 1449 1449 1448 1448 1448 1448 1448 1448 1447 1447 1446 1446 1445 1445 1446
1499 1496 1493 1491 1488 1486 1483 1480 1477 1475 1472 1470 1467 1466 1464 1463 1461 1460 1458 1457 1455 1453 1452 1450 1448 1447 1445 1444 1443 1442 1442 1441 1441 1441 1441 1441 1441 1441 1440 1440 1439 1440 1440
1496 1493 1489 1486 1483 1479 1476 1473 1470 1467 1465 1462 1460 1458 1456 1455 1453 1452 1451 1449 1448 1447 1445 1444 1443 1441 1440 1438 1437 1436 1435 1434 1434 1434 1434 1434 1435 1435 1435 1434 1434 1434 1435
1491 1487 1483 1480 1476 1473 1469 1466 1462 1459 1456 1454 1451 1450 1448 1446 1445 1444 1442 1441 1440 1439 1438 1437 1436 1435 1434 1433 1431 1430 1429 1428 1427 1427 1427 1427 1428 1429 1429 1429 1429 1429 1430
1485 1481 1477 1473 1469 1465 1461 1457 1453 1450 1448 1445 1442 1441 1439 1437 1436 1435 1434 1433 1432 1431 1430 1429 1429 1427 1427 1426 1425 1424 1423 1422 1421 1421 1421 1421 1422 1423 1423 1424 1424 1424 1426
1479 1475 1470 1465 1461 1457 1452 1448 1445 1441 1438 1435 1433 1431 1430 1428 1427 1426 1425 1424 1423 1423 1422 1421 1421 1420 1419 1419 1418 1417 1416 1415 1415 1415 1415 1415 1416 1417 1418 1419 1419 1420 1422
1473 1468 1463 1458 1453 1449 1444 1440 1436 1432 1429 1426 1423 1422 1420 1418 1417 1416 1415 1415 1415 1414 1414 1413 1413 1412 1411 1411 1411 1410 1409 1409 1408 1408 1408 1409 1410 1411 1412 1414 1415 1416 1418
1467 1462 1456 1451 1446 1441 1436 1431 1427 1423 1419 1416 1414 1412 1410 1408 1407 1406 1406 1406 1405 1405 1405 1405 1405 1404 1404 1404 1404 1404 1403 1403 1402 1402 1402 1403 1404 1406 1407 1409 1411 1413 1415
1461 1455 1449 1444 1438 1433 1428 1422 1417 1413 1410 1406 1403 1401 1400 1398 1397 1396 1396 1396 1396 1396 1396 1396 1396 1397 1397 1397 1397 1397 1397 1397 1396 1396 1396 1397 1399 1401 1403 1405 1408 1410 1414
1454 1448 1441 1435 1430 1424 1418 1412 1407 1403 1399 1395 1392 1390 1388 1387 1386 1386 1385 1386 1386 1387 1387 1388 1388 1389 1390 1390 1390 1390 1391 1391 1391 1391 1392 1393 1394 1396 1399 1402 1406 1409 1412
1447 1441 1434 1427 1421 1415 1409 1403 1397 1393 1388 1384 1381 1379 1378 1376 1376 1375 1375 1376 1377 1377 1378 1379 1380 1381 1383 1383 1384 1384 1385 1386 1386 1387 1387 1388 1390 1393 1396 1400 1403 1407 1411
1441 1433 1426 1418 1411 1406 1400 1393 1388 1382 1378 1374 1371 1369 1367 1366 1365 1365 1366 1366 1367 1368 1370 1371 1373 1374 1376 1377 1378 1379 1380 1381 1382 1382 1383 1384 1386 1389 1393 1398 1402 1406 1411
1434 1427 1419 1411 1403 1396 1390 1384 1378 1373 1368 1364 1362 1360 1358 1357 1356 1356 1357 1358 1359 1361 1362 1364 1366 1368 1370 1372 1373 1374 1376 1377 1378 1379 1380 1381 1383 1386 1391 1396 1401 1406 1411
1428 1420 1412 1404 1396 1388 1381 1375 1370 1365 1360 1355 1353 1351 1350 1349 1348 1349 1349 1350 1352 1354 1356 1358 1361 1363 1365 1368 1369 1371 1373 1374 1376 1377 1377 1379 1382 1385 1390 1395 1401 1407 1412